EW3967 Weather Reports


Display with metric or nautical units.
time (UTC)temp
F
wind
direction
speed
MPH
gust
MPH
rain 1hr
in
rain 24hr
in
rain mn
in
humidity
%
barometer
mb
20260903211559 91 153 7.0 12.0 0.00 0.00 0.00 55 1008.6
20260903210100 90 133 6.0 14.0 0.00 0.00 0.00 55 1008.9
20260903204555 90 115 9.0 17.0 0.00 0.00 0.00 56 1009.1
20260903203104 90 169 7.0 17.0 0.00 0.00 0.00 56 1009.1
20260903201551 90 143 9.0 18.0 0.00 0.00 0.00 56 1009.2
20260903200050 90 142 5.0 14.0 0.00 0.00 0.00 57 1009.4
20260903194549 89 238 3.0 16.0 0.00 0.00 0.00 58 1009.6
20260903193048 89 162 6.0 18.0 0.00 0.00 0.00 57 1009.8
20260903191543 89 205 5.0 12.0 0.00 0.00 0.00 57 1010.0
20260903190043 88 176 6.0 12.0 0.00 0.00 0.00 58 1010.1
20260903184541 88 202 6.0 16.0 0.00 0.00 0.00 59 1010.2
20260903183038 88 147 8.0 14.0 0.00 0.00 0.00 59 1010.6
20260903181537 88 177 9.0 16.0 0.00 0.00 0.00 59 1010.6
20260903180045 89 269 8.0 14.0 0.00 0.00 0.00 60 1010.6
20260903174537 89 158 5.0 13.0 0.00 0.00 0.00 59 1010.8
20260903173033 88 142 7.0 13.0 0.00 0.00 0.00 58 1011.0
20260903171542 87 195 8.0 17.0 0.00 0.00 0.00 60 1011.1
20260903170039 87 173 6.0 14.0 0.00 0.00 0.00 61 1011.1
20260903164527 87 154 6.0 11.0 0.00 0.00 0.00 64 1011.2
20260903163027 86 158 4.0 15.0 0.00 0.00 0.00 64 1011.2
20260903161523 85 162 5.0 9.0 0.00 0.00 0.00 65 1011.3
20260903160024 85 102 8.0 13.0 0.00 0.00 0.00 66 1011.3
20260903154523 84 217 3.0 9.0 0.00 0.00 0.00 67 1011.4
20260903153022 83 137 3.0 11.0 0.00 0.00 0.00 68 1011.5
20260903151521 82 143 1.0 11.0 0.00 0.00 0.00 71 1011.5
20260903150038 81 203 6.0 9.0 0.00 0.00 0.00 72 1011.8
20260903144527 81 138 4.0 9.0 0.00 0.00 0.00 72 1012.0
20260903143027 80 217 6.0 11.0 0.00 0.00 0.00 74 1012.0
20260903141528 80 173 7.0 14.0 0.00 0.00 0.00 74 1011.9
20260903140034 79 154 7.0 12.0 0.00 0.00 0.00 75 1012.1
20260903134519 78 157 8.0 15.0 0.00 0.00 0.00 76 1012.1
20260903133021 78 156 6.0 13.0 0.00 0.00 0.00 76 1012.1
20260903131523 78 214 6.0 13.0 0.00 0.00 0.00 78 1012.1
20260903130014 77 147 5.0 11.0 0.00 0.00 0.00 79 1011.9
20260903124514 76 141 5.0 9.0 0.00 0.00 0.00 79 1011.9
20260903123010 75 173 1.0 6.0 0.00 0.00 0.00 80 1011.8
20260903121508 74 156 0.0 4.0 0.00 0.00 0.00 81 1011.7
20260903120007 75 174 2.0 6.0 0.00 0.00 0.00 80 1011.5
20260903114504 75 257 4.0 9.0 0.00 0.00 0.00 79 1011.2
20260903113003 75 238 2.0 8.0 0.00 0.00 0.00 78 1011.3
20260903111600 76 148 3.0 9.0 0.00 0.00 0.00 77 1011.0
20260903110105 76 155 5.0 9.0 0.00 0.00 0.00 77 1011.0
20260903104615 76 158 3.0 8.0 0.00 0.00 0.00 77 1010.9
20260903103059 76 174 4.0 8.0 0.00 0.00 0.00 76 1011.0
20260903101601 77 160 2.0 6.0 0.00 0.00 0.00 75 1011.1
20260903100053 77 150 4.0 8.0 0.00 0.00 0.00 74 1011.0
20260903094601 77 158 4.0 8.0 0.00 0.00 0.00 74 1011.0
20260903093050 77 152 3.0 6.0 0.00 0.00 0.00 74 1011.1
20260903091601 78 236 0.0 3.0 0.00 0.00 0.00 72 1011.1
20260903090045 78 177 1.0 7.0 0.00 0.00 0.00 71 1010.8
20260903084547 79 142 4.0 9.0 0.00 0.00 0.00 70 1010.7
20260903083040 79 149 5.0 10.0 0.00 0.00 0.00 70 1010.7
20260903081539 80 181 3.0 7.0 0.00 0.00 0.00 69 1010.8
20260903080041 80 178 4.0 11.0 0.00 0.00 0.00 68 1010.8
20260903074544 81 148 4.0 9.0 0.00 0.00 0.00 67 1010.7
20260903073033 81 129 6.0 11.0 0.00 0.00 0.00 66 1010.8
20260903071531 82 187 5.0 11.0 0.00 0.00 0.00 65 1010.8
20260903070032 82 155 6.0 13.0 0.00 0.00 0.00 64 1010.8
20260903064527 82 219 6.0 10.0 0.00 0.00 0.00 63 1010.8
20260903063029 83 236 5.0 11.0 0.00 0.00 0.00 62 1010.8
20260903061534 83 206 6.0 15.0 0.00 0.00 0.00 62 1010.8
20260903060036 83 155 7.0 11.0 0.00 0.00 0.00 61 1010.8
20260903054522 84 171 5.0 10.0 0.00 0.00 0.00 60 1010.8
20260903053028 84 156 6.0 11.0 0.00 0.00 0.00 59 1010.8
20260903051515 85 181 6.0 14.0 0.00 0.00 0.00 58 1010.8
20260903050013 85 247 7.0 13.0 0.00 0.00 0.00 57 1010.8
20260903044513 86 213 6.0 15.0 0.00 0.00 0.00 55 1010.8
20260903043027 87 155 8.0 20.0 0.00 0.00 0.00 53 1010.8
20260903041512 87 177 4.0 11.0 0.00 0.00 0.00 51 1010.7
20260903040012 87 173 5.0 0.0 0.00 0.00 0.00 50 1010.6
20260903034512 87 186 5.0 10.0 0.00 0.00 0.00 50 1010.7
20260903033010 87 165 6.0 11.0 0.00 0.00 0.00 50 1010.6
20260903031635 87 148 6.0 12.0 0.00 0.00 0.00 50 1010.5
20260903030009 87 221 6.0 9.0 0.00 0.00 0.00 49 1010.5
20260903024509 87 147 4.0 8.0 0.00 0.00 0.00 48 1010.4
20260903023010 88 139 3.0 7.0 0.00 0.00 0.00 47 1010.3
20260903021510 88 164 2.0 5.0 0.00 0.00 0.00 47 1010.2
20260903020006 89 162 3.0 5.0 0.00 0.00 0.00 46 1010.0
20260903014507 90 154 2.0 4.0 0.00 0.00 0.00 45 1010.0
20260903013005 90 165 2.0 5.0 0.00 0.00 0.00 44 1009.8
20260903011506 91 145 2.0 4.0 0.00 0.00 0.00 42 1009.5
20260903010006 93 140 3.0 6.0 0.00 0.00 0.00 40 1009.4
20260903004513 94 169 2.0 7.0 0.00 0.00 0.00 39 1009.3
20260903003010 95 164 3.0 11.0 0.00 0.00 0.00 37 1009.3
20260903001611 97 196 4.0 9.0 0.00 0.00 0.00 35 1009.2
20260903000006 97 162 5.0 10.0 0.00 0.00 0.00 34 1009.2
20260902234502 98 206 6.0 13.0 0.00 0.00 0.00 34 1009.2
20260902233003 98 155 6.0 13.0 0.00 0.00 0.00 34 1009.2
20260902231501 98 143 5.0 13.0 0.00 0.00 0.00 33 1009.2
20260902230100 99 146 5.0 13.0 0.00 0.00 0.00 34 1009.3
20260902224604 99 165 6.0 12.0 0.00 0.00 0.00 34 1009.3
20260902223059 99 144 7.0 13.0 0.00 0.00 0.00 33 1009.3
20260902221605 99 101 5.0 13.0 0.00 0.00 0.00 32 1009.4
20260902220101 99 133 6.0 12.0 0.00 0.00 0.00 34 1009.4
20260902214603 98 129 6.0 12.0 0.00 0.00 0.00 36 1009.5
20260902213053 99 148 6.0 15.0 0.00 0.00 0.00 35 1009.7